FW0633 Weather Reports


Display with metric or nautical units.
time (UTC)temp
F
wind
direction
speed
MPH
gust
MPH
rain 1hr
in
rain 24hr
in
rain mn
in
humidity
%
barometer
mb
20260904014506 78 214 1.0 6.0 0.00 0.00 0.00 47 1035.0
20260904013005 79 218 2.0 6.0 0.00 0.00 0.00 46 1035.0
20260904011506 81 235 3.0 10.0 0.00 0.00 0.00 42 1035.0
20260904010026 81 214 2.0 12.0 0.00 0.00 0.00 43 1035.0
20260904004505 81 212 5.0 12.0 0.00 0.00 0.00 42 1035.2
20260904003006 82 208 3.0 14.0 0.00 0.00 0.00 43 1035.2
20260904001505 81 210 4.0 10.0 0.00 0.00 0.00 43 1035.3
20260904000027 82 193 3.0 8.0 0.00 0.00 0.00 41 1035.3
20260903234505 82 217 4.0 11.0 0.00 0.00 0.00 42 1035.4
20260903233027 82 212 4.0 10.0 0.00 0.00 0.00 42 1035.4
20260903231506 83 225 3.0 8.0 0.00 0.00 0.00 41 1035.4
20260903230005 81 207 4.0 10.0 0.00 0.00 0.00 42 1035.7
20260903224505 83 206 2.0 9.0 0.00 0.00 0.00 40 1035.8
20260903223005 82 230 3.0 13.0 0.00 0.00 0.00 41 1036.0
20260903221526 82 169 5.0 16.0 0.00 0.00 0.00 42 1036.1
20260903220006 82 202 3.0 13.0 0.00 0.00 0.00 44 1036.4
20260903214506 82 205 4.0 10.0 0.00 0.00 0.00 42 1036.4
20260903213005 82 196 4.0 13.0 0.00 0.00 0.00 42 1036.6
20260903211506 81 208 4.0 12.0 0.00 0.00 0.00 43 1036.8
20260903210005 82 221 4.0 15.0 0.00 0.00 0.00 39 1036.9
20260903204505 82 202 4.0 12.0 0.00 0.00 0.00 42 1036.9
20260903203026 82 191 5.0 14.0 0.00 0.00 0.00 42 1037.0
20260903201505 84 223 5.0 11.0 0.00 0.00 0.00 39 1037.0
20260903200005 84 174 5.0 14.0 0.00 0.00 0.00 38 1037.2
20260903194505 84 204 5.0 15.0 0.00 0.00 0.00 38 1037.3
20260903193005 84 225 4.0 11.0 0.00 0.00 0.00 39 1037.3
20260903191526 83 217 5.0 17.0 0.00 0.00 0.00 39 1037.6
20260903190005 83 175 5.0 16.0 0.00 0.00 0.00 39 1037.8
20260903184505 83 195 5.0 15.0 0.00 0.00 0.00 39 1038.0
20260903183005 83 205 5.0 18.0 0.00 0.00 0.00 39 1038.2
20260903181505 82 224 3.0 11.0 0.00 0.00 0.00 39 1038.2
20260903180005 81 169 6.0 20.0 0.00 0.00 0.00 40 1038.4
20260903174526 80 170 6.0 16.0 0.00 0.00 0.00 39 1038.6
20260903173006 80 164 5.0 14.0 0.00 0.00 0.00 40 1038.6
20260903171505 80 196 4.0 11.0 0.00 0.00 0.00 41 1038.5
20260903170005 80 206 3.0 12.0 0.00 0.00 0.00 42 1038.4
20260903164505 79 196 4.0 12.0 0.00 0.00 0.00 42 1038.4
20260903163005 79 216 4.0 11.0 0.00 0.00 0.00 43 1038.4
20260903161505 78 201 3.0 12.0 0.00 0.00 0.00 42 1038.4
20260903160005 77 204 3.0 9.0 0.00 0.00 0.00 43 1038.4
20260903154504 77 203 3.0 10.0 0.00 0.00 0.00 43 1038.5
20260903153004 76 176 3.0 8.0 0.00 0.00 0.00 43 1038.3
20260903151505 75 151 4.0 11.0 0.00 0.00 0.00 45 1038.5
20260903150004 74 152 2.0 6.0 0.00 0.00 0.00 46 1038.4
20260903144504 73 128 2.0 6.0 0.00 0.00 0.00 47 1038.4
20260903143005 72 153 1.0 5.0 0.00 0.00 0.00 49 1038.4
20260903141504 68 143 1.0 6.0 0.00 0.00 0.00 53 1038.4
20260903140005 62 200 0.0 2.0 0.00 0.00 0.00 64 1038.3
20260903134504 57 0 0.0 0.0 0.00 0.00 0.00 71 1038.1
20260903133004 54 0 0.0 0.0 0.00 0.00 0.00 73 1037.9
20260903131504 54 279 0.0 1.0 0.00 0.00 0.00 73 1037.8
20260903130025 54 279 0.0 1.0 0.00 0.00 0.00 73 1037.7
20260903124504 54 0 0.0 0.0 0.00 0.00 0.00 72 1037.7
20260903123004 54 0 0.0 0.0 0.00 0.00 0.00 71 1037.6
20260903121504 54 0 0.0 0.0 0.00 0.00 0.00 69 1037.6
20260903120004 55 0 0.0 0.0 0.00 0.00 0.00 68 1037.7
20260903114504 55 0 0.0 0.0 0.00 0.00 0.00 67 1037.6
20260903113004 55 0 0.0 0.0 0.00 0.00 0.00 66 1037.6
20260903111504 54 0 0.0 0.0 0.00 0.00 0.00 67 1037.6
20260903110004 55 0 0.0 0.0 0.00 0.00 0.00 65 1037.6
20260903104504 55 0 0.0 0.0 0.00 0.00 0.00 64 1037.7
20260903103025 56 0 0.0 0.0 0.00 0.00 0.00 62 1037.8
20260903101505 55 0 0.0 0.0 0.00 0.00 0.00 62 1037.8
20260903100004 56 0 0.0 0.0 0.00 0.00 0.00 62 1037.9
20260903094504 57 0 0.0 0.0 0.00 0.00 0.00 59 1038.0
20260903093004 58 0 0.0 0.0 0.00 0.00 0.00 55 1038.0
20260903091504 57 276 0.0 1.0 0.00 0.00 0.00 58 1038.1
20260903090025 57 271 0.0 1.0 0.00 0.00 0.00 58 1038.0
20260903084504 58 273 0.0 1.0 0.00 0.00 0.00 58 1037.9
20260903083004 58 0 0.0 0.0 0.00 0.00 0.00 60 1038.1
20260903081504 58 0 0.0 0.0 0.00 0.00 0.00 59 1038.2
20260903080004 59 0 0.0 0.0 0.00 0.00 0.00 57 1038.2
20260903074524 60 0 0.0 0.0 0.00 0.00 0.00 55 1038.3
20260903073004 60 274 0.0 1.0 0.00 0.00 0.00 53 1038.3
20260903071504 61 257 0.0 1.0 0.00 0.00 0.00 53 1038.5
20260903070004 60 242 0.0 1.0 0.00 0.00 0.00 56 1038.4
20260903064503 60 0 0.0 0.0 0.00 0.00 0.00 57 1038.4
20260903063003 62 312 0.0 2.0 0.00 0.00 0.00 57 1038.4
20260903061524 62 117 0.0 1.0 0.00 0.00 0.00 58 1038.4
20260903060003 63 117 0.0 1.0 0.00 0.00 0.00 56 1038.4
20260903054503 64 118 0.0 1.0 0.00 0.00 0.00 54 1038.4
20260903053003 65 119 0.0 1.0 0.00 0.00 0.00 53 1038.5
20260903051503 66 0 0.0 0.0 0.00 0.00 0.00 51 1038.4
20260903050003 68 113 0.0 1.0 0.00 0.00 0.00 48 1038.5
20260903044503 70 113 0.0 1.0 0.00 0.00 0.00 46 1038.4
20260903043003 71 131 0.0 1.0 0.00 0.00 0.00 43 1038.3
20260903041506 71 233 0.0 3.0 0.00 0.00 0.00 39 1038.1
20260903040008 72 227 0.0 3.0 0.00 0.00 0.00 40 1037.9
20260903034505 72 229 1.0 4.0 0.00 0.00 0.00 40 1037.8
20260903033005 72 232 0.0 3.0 0.00 0.00 0.00 40 1037.7
20260903031506 73 224 0.0 2.0 0.00 0.00 0.00 39 1037.5
20260903030005 74 219 1.0 4.0 0.00 0.00 0.00 38 1037.4
20260903024506 75 238 1.0 4.0 0.00 0.00 0.00 37 1037.2
20260903023006 75 236 1.0 4.0 0.00 0.00 0.00 37 1037.0
20260903021505 76 232 1.0 6.0 0.00 0.00 0.00 37 1037.0
20260903020026 77 231 1.0 5.0 0.00 0.00 0.00 36 1037.2